FW7766 Weather Reports


Display with metric or nautical units.
time (UTC)temp
F
wind
direction
speed
MPH
gust
MPH
rain 1hr
in
rain 24hr
in
rain mn
in
humidity
%
barometer
mb
20260903010108 82 0.0 0.0 0.00 0.00 0.00 57 1018.5
20260903005125 83 0.0 0.0 0.00 0.00 0.00 56 1018.4
20260903004101 83 0.0 0.0 0.00 0.00 0.00 56 1018.4
20260903003118 84 0.0 0.0 0.00 0.00 0.00 56 1018.3
20260903002055 84 0.0 0.0 0.00 0.00 0.00 55 1018.3
20260903001111 85 0.0 0.0 0.00 0.00 0.00 51 1018.2
20260903000128 86 0.0 0.0 0.00 0.00 0.00 50 1018.1
20260902235045 86 0.0 0.0 0.00 0.00 0.00 49 1018.1
20260902234041 87 0.0 0.0 0.00 0.00 0.00 49 1018.0
20260902233057 88 0.0 0.0 0.00 0.00 0.00 49 1018.0
20260902232114 88 0.0 0.0 0.00 0.00 0.00 47 1017.9
20260902231030 89 0.0 0.0 0.00 0.00 0.00 47 1017.8
20260902230027 90 0.0 0.0 0.00 0.00 0.00 47 1017.8
20260902225024 90 0.0 0.0 0.00 0.00 0.00 46 1017.9
20260902224020 91 0.0 0.0 0.00 0.00 0.00 42 1017.8
20260902223017 91 0.0 0.0 0.00 0.00 0.00 38 1017.8
20260902222113 91 0.0 0.0 0.00 0.00 0.00 39 1017.9
20260902221110 92 0.0 0.0 0.00 0.00 0.00 39 1017.9
20260902220107 92 0.0 0.0 0.00 0.00 0.00 39 1018.0
20260902215123 92 0.0 0.0 0.00 0.00 0.00 40 1017.9
20260902214120 92 0.0 0.0 0.00 0.00 0.00 40 1017.9
20260902213116 93 0.0 0.0 0.00 0.00 0.00 40 1018.0
20260902212053 93 0 0.0 1.0 0.00 0.00 0.00 40 1018.0
20260902211050 93 0 1.0 3.0 0.00 0.00 0.00 40 1018.0
20260902210046 93 0.0 0.0 0.00 0.00 0.00 43 1018.0
20260902205043 94 78 1.0 2.0 0.00 0.00 0.00 44 1018.0
20260902204039 94 0 0.0 1.0 0.00 0.00 0.00 44 1018.0
20260902203036 93 287 1.0 3.0 0.00 0.00 0.00 43 1018.0
20260902202033 94 342 1.0 2.0 0.00 0.00 0.00 43 1018.1
20260902201029 94 270 0.0 2.0 0.00 0.00 0.00 44 1018.2
20260902200026 94 0 0.0 2.0 0.00 0.00 0.00 41 1018.4
20260902195022 93 56 1.0 3.0 0.00 0.00 0.00 44 1018.5
20260902194019 94 301 1.0 3.0 0.00 0.00 0.00 44 1018.7
20260902193015 93 307 1.0 3.0 0.00 0.00 0.00 44 1018.8
20260902192112 93 290 1.0 2.0 0.00 0.00 0.00 42 1018.7
20260902191109 92 311 1.0 2.0 0.00 0.00 0.00 40 1018.9
20260902190125 93 311 2.0 3.0 0.00 0.00 0.00 43 1019.1
20260902185102 93 270 1.0 2.0 0.00 0.00 0.00 41 1019.2
20260902184058 92 355 1.0 2.0 0.00 0.00 0.00 40 1019.1
20260902183055 92 270 1.0 3.0 0.00 0.00 0.00 40 1019.2
20260902182051 92 0 2.0 3.0 0.00 0.00 0.00 37 1019.3
20260902181048 92 320 1.0 3.0 0.00 0.00 0.00 40 1019.3
20260902180044 93 334 1.0 3.0 0.00 0.00 0.00 40 1019.4
20260902175101 92 270 2.0 3.0 0.00 0.00 0.00 41 1019.5
20260902174057 94 315 1.0 2.0 0.00 0.00 0.00 43 1019.5
20260902173034 93 293 1.0 3.0 0.00 0.00 0.00 43 1019.6
20260902172030 92 351 1.0 2.0 0.00 0.00 0.00 43 1019.7
20260902171026 92 315 1.0 3.0 0.00 0.00 0.00 43 1019.9
20260902170023 93 350 1.0 5.0 0.00 0.00 0.00 44 1020.1
20260902165020 93 0 1.0 2.0 0.00 0.00 0.00 44 1020.1
20260902164016 92 0 1.0 3.0 0.00 0.00 0.00 42 1020.2
20260902163113 92 0 2.0 3.0 0.00 0.00 0.00 44 1020.4
20260902162110 92 0 2.0 3.0 0.00 0.00 0.00 44 1020.5
20260902161106 91 0 1.0 2.0 0.00 0.00 0.00 38 1020.4
20260902160103 91 0 1.0 3.0 0.00 0.00 0.00 41 1020.4
20260902155059 88 0 1.0 1.0 0.00 0.00 0.00 46 1020.5
20260902154056 88 0 1.0 2.0 0.00 0.00 0.00 47 1020.6
20260902153052 87 0 1.0 3.0 0.00 0.00 0.00 48 1020.5
20260902152049 86 0.0 0.0 0.00 0.00 0.00 46 1020.6
20260902151046 86 0 1.0 2.0 0.00 0.00 0.00 47 1020.6
20260902150043 85 0.0 0.0 0.00 0.00 0.00 52 1020.4
20260902145039 84 0.0 0.0 0.00 0.00 0.00 55 1020.4
20260902144056 84 0.0 0.0 0.00 0.00 0.00 55 1020.4
20260902143033 83 0.0 0.0 0.00 0.00 0.00 55 1020.4
20260902142029 82 0.0 0.0 0.00 0.00 0.00 56 1020.3
20260902141026 81 0.0 0.0 0.00 0.00 0.00 58 1020.2
20260902140043 80 0.0 0.0 0.00 0.00 0.00 59 1020.3
20260902135019 79 0.0 0.0 0.00 0.00 0.00 60 1020.3
20260902134016 78 0.0 0.0 0.00 0.00 0.00 61 1020.2
20260902133112 78 0.0 0.0 0.00 0.00 0.00 62 1020.1
20260902132109 77 0.0 0.0 0.00 0.00 0.00 62 1020.2
20260902131146 76 0 0.0 1.0 0.00 0.00 0.00 62 1020.4
20260902125059 74 0 0.0 2.0 0.00 0.00 0.00 63 1020.5
20260902124056 73 0.0 0.0 0.00 0.00 0.00 65 1020.4
20260902123112 73 0.0 0.0 0.00 0.00 0.00 65 1020.3
20260902122048 73 0.0 0.0 0.00 0.00 0.00 65 1020.2
20260902121045 72 0 1.0 2.0 0.00 0.00 0.00 69 1020.1
20260902120041 72 0 0.0 1.0 0.00 0.00 0.00 72 1019.9
20260902115038 71 0.0 0.0 0.00 0.00 0.00 79 1019.9
20260902114035 71 0.0 0.0 0.00 0.00 0.00 82 1019.9
20260902113031 71 0.0 0.0 0.00 0.00 0.00 85 1019.8
20260902112028 71 0.0 0.0 0.00 0.00 0.00 85 1019.6
20260902111024 71 0.0 0.0 0.00 0.00 0.00 85 1019.6
20260902110020 71 0.0 0.0 0.00 0.00 0.00 85 1019.7
20260902105017 71 0.0 0.0 0.00 0.00 0.00 85 1019.6
20260902104114 71 0.0 0.0 0.00 0.00 0.00 83 1019.7
20260902103111 71 90 0.0 1.0 0.00 0.00 0.00 82 1019.7
20260902102107 71 0.0 0.0 0.00 0.00 0.00 78 1019.6
20260902101103 71 0.0 0.0 0.00 0.00 0.00 77 1019.6
20260902100100 71 0.0 0.0 0.00 0.00 0.00 77 1019.6
20260902095056 72 0.0 0.0 0.00 0.00 0.00 76 1019.6
20260902094053 72 0.0 0.0 0.00 0.00 0.00 77 1019.5
20260902093049 72 0.0 0.0 0.00 0.00 0.00 77 1019.4
20260902092046 72 0.0 0.0 0.00 0.00 0.00 77 1019.4
20260902091042 72 0.0 0.0 0.00 0.00 0.00 74 1019.4
20260902090039 72 90 0.0 1.0 0.00 0.00 0.00 72 1019.3
20260902085036 72 0.0 0.0 0.00 0.00 0.00 70 1019.3
20260902084032 72 0.0 0.0 0.00 0.00 0.00 70 1019.3
20260902083029 72 0.0 0.0 0.00 0.00 0.00 67 1019.2
20260902082025 73 0.0 0.0 0.00 0.00 0.00 69 1019.0
20260902081022 73 0.0 0.0 0.00 0.00 0.00 74 1019.1
20260902080059 73 0.0 0.0 0.00 0.00 0.00 76 1019.2
20260902075015 73 0.0 0.0 0.00 0.00 0.00 75 1019.2
20260902074112 73 0.0 0.0 0.00 0.00 0.00 69 1019.2
20260902073109 73 0.0 0.0 0.00 0.00 0.00 74 1019.1
20260902072105 73 0.0 0.0 0.00 0.00 0.00 78 1019.4
20260902071102 73 0.0 0.0 0.00 0.00 0.00 78 1019.2
20260902070058 73 0.0 0.0 0.00 0.00 0.00 77 1019.2
20260902065055 73 0.0 0.0 0.00 0.00 0.00 76 1019.3
20260902064052 73 0.0 0.0 0.00 0.00 0.00 75 1019.2
20260902063048 73 0.0 0.0 0.00 0.00 0.00 73 1019.3
20260902062045 73 0.0 0.0 0.00 0.00 0.00 73 1019.2
20260902061140 74 0.0 0.0 0.00 0.00 0.00 72 1019.2
20260902060036 74 0.0 0.0 0.00 0.00 0.00 71 1019.1
20260902055033 74 0.0 0.0 0.00 0.00 0.00 71 1019.2
20260902054050 74 0.0 0.0 0.00 0.00 0.00 71 1019.2
20260902053026 74 0.0 0.0 0.00 0.00 0.00 70 1019.1
20260902052023 74 0.0 0.0 0.00 0.00 0.00 69 1019.0
20260902051019 74 0.0 0.0 0.00 0.00 0.00 68 1018.8
20260902050016 74 0.0 0.0 0.00 0.00 0.00 68 1018.8
20260902045113 75 0.0 0.0 0.00 0.00 0.00 68 1018.9
20260902044109 75 0.0 0.0 0.00 0.00 0.00 67 1018.9
20260902043106 75 0.0 0.0 0.00 0.00 0.00 67 1018.8
20260902042103 75 0.0 0.0 0.00 0.00 0.00 67 1018.8
20260902041059 75 0.0 0.0 0.00 0.00 0.00 67 1018.9
20260902040116 76 0.0 0.0 0.00 0.00 0.00 66 1018.9
20260902035052 76 0.0 0.0 0.00 0.00 0.00 66 1019.0
20260902034049 76 0.0 0.0 0.00 0.00 0.00 66 1019.0
20260902033106 76 0.0 0.0 0.00 0.00 0.00 66 1018.9
20260902032042 76 0.0 0.0 0.00 0.00 0.00 66 1018.8
20260902031039 77 0.0 0.0 0.00 0.00 0.00 66 1018.9
20260902030036 77 0.0 0.0 0.00 0.00 0.00 66 1018.8
20260902025032 77 0.0 0.0 0.00 0.00 0.00 66 1018.9
20260902024049 77 0.0 0.0 0.00 0.00 0.00 66 1018.8
20260902023025 77 0.0 0.0 0.00 0.00 0.00 66 1018.8
20260902022022 77 0.0 0.0 0.00 0.00 0.00 66 1018.7
20260902021019 78 0.0 0.0 0.00 0.00 0.00 65 1018.8
20260902020036 78 0.0 0.0 0.00 0.00 0.00 65 1018.5
20260902015112 78 0.0 0.0 0.00 0.00 0.00 64 1018.4
20260902014109 79 0.0 0.0 0.00 0.00 0.00 63 1018.3
20260902013105 79 0.0 0.0 0.00 0.00 0.00 62 1018.1
20260902012102 79 0.0 0.0 0.00 0.00 0.00 62 1018.1
20260902011059 80 0.0 0.0 0.00 0.00 0.00 61 1018.0